Home   Weather   Thônex   Past weeks

Flag for Switzerland Past Weather in Thônex, Geneva, Switzerland — Yesterday and Last 2 Weeks

Now
36 °F

Passing clouds.


Feels Like: 36 °F
Forecast: 30 / 48 °F
Wind: 1 mph from North

Location: Geneva Cointrin Airport

Current Time: Dec 5, 2016 at 5:28:41 am

Latest Report: Dec 5, 2016 at 4:50 am


Visibility: 3 mi

Pressure: 30.30 "Hg

Humidity: 93%

Dew Point: 34 °F

Location of ThônexLocation

Past Weather in Thônex — Graph

°F

Thônex Temperature Yesterday

Maximum temperature yesterday: 39 °F (at 2:20 pm)
Minimum temperature yesterday: 32 °F (at 5:50 pm)
Average temperature yesterday: 37 °F

High & Low Weather Summary for the Past Weeks

 TemperatureHumidityPressure
High63 °F (Nov 20, 2:50 pm)100% (Nov 20, 3:50 am)30.60 "Hg (Nov 20, 3:50 am)
Low25 °F (Nov 30, 5:50 am)39% (Nov 20, 1:50 pm)29.62 "Hg (Nov 21, 5:20 am)
Average41 °F85%30.06 "Hg
* Reported Nov 20 3:20 am — Dec 5 3:50 am, Thônex, Weather by CustomWeather, © 2016

Note: Actual official high and low records may vary slightly from our data, if they occured in-between our weather recording intervals... More about our weather records

Advertising

Thônex Weather History for the Previous 24 Hours

Scroll right to see more
 ConditionsComfort  
Time TempWeatherWind HumidityBarometerVisibility
3:50 am
Mon, Dec 5
36 °FFog.1 mph93%30.30 "Hg3 mi
3:20 am36 °FFog.2 mph93%30.30 "Hg3 mi
2:50 am36 °FFog.1 mph93%30.30 "Hg3 mi
2:20 am36 °FFog.1 mph93%30.30 "Hg3 mi
1:50 am36 °FFog.1 mph93%30.30 "Hg3 mi
1:20 am37 °FPassing clouds.2 mph87%30.30 "Hg3 mi
12:50 am37 °FLow clouds.No wind87%30.30 "Hg3 mi
12:20 am37 °FLow clouds.2 mph87%30.30 "Hg3 mi
11:50 pm
Sun, Dec 4
37 °FPassing clouds.1 mph87%30.30 "Hg3 mi
11:20 pm37 °FOvercast.1 mph87%30.30 "Hg3 mi
10:50 pm37 °FOvercast.2 mph87%30.30 "Hg4 mi
10:20 pm37 °FOvercast.3 mph87%30.30 "Hg4 mi
9:50 pm36 °FOvercast.3 mph93%30.30 "Hg4 mi
9:20 pm36 °FOvercast.2 mph93%30.30 "Hg4 mi
8:50 pm36 °FOvercast.1 mph87%30.27 "Hg4 mi
8:20 pm34 °FOvercast.1 mph93%30.27 "Hg5 mi
7:50 pm34 °FPassing clouds.1 mph93%30.27 "Hg5 mi
7:20 pm32 °FPartly cloudy.1 mph93%30.27 "Hg5 mi
6:50 pm32 °FPassing clouds.No wind93%30.27 "Hg6 mi
6:20 pm32 °FClear.1 mph93%30.24 "Hg5 mi
5:50 pm32 °FClear.1 mph93%30.24 "Hg5 mi
5:20 pm34 °FClear.2 mph93%30.24 "Hg4 mi
4:50 pm36 °FPassing clouds.2 mph87%30.24 "Hg5 mi
4:20 pm37 °FPassing clouds.2 mph81%30.24 "Hg5 mi
3:50 pm39 °FPassing clouds.3 mph81%30.24 "Hg5 mi
3:20 pm39 °FScattered clouds.6 mph75%30.24 "Hg5 mi
2:50 pm39 °FPartly sunny.6 mph75%30.24 "Hg5 mi
2:20 pm39 °FOvercast.5 mph75%30.24 "Hg5 mi
1:50 pm37 °FOvercast.3 mph81%30.24 "Hg5 mi
1:20 pm37 °FPartly sunny.5 mph81%30.24 "Hg5 mi
12:50 pm37 °FOvercast.5 mph81%30.24 "Hg5 mi
12:20 pm37 °FOvercast.5 mph81%30.27 "Hg4 mi
11:50 am37 °FOvercast.5 mph81%30.27 "Hg4 mi
11:20 am37 °FOvercast.5 mph81%30.27 "Hg4 mi
10:50 am37 °FOvercast.5 mph81%30.27 "Hg4 mi
10:20 am37 °FOvercast.3 mph81%30.27 "Hg4 mi
9:50 am37 °FOvercast.3 mph81%30.27 "Hg4 mi
9:20 am37 °FOvercast.3 mph81%30.24 "Hg4 mi
8:50 am37 °FOvercast.3 mph81%30.24 "Hg4 mi
8:20 am37 °FOvercast.3 mph81%30.24 "Hg4 mi
7:50 am37 °FOvercast.3 mph81%30.24 "Hg4 mi
7:20 am37 °FOvercast.5 mph81%30.21 "Hg5 mi
6:50 am37 °FOvercast.5 mph81%30.21 "Hg5 mi
6:20 am37 °FOvercast.3 mph81%30.21 "Hg5 mi
5:50 am37 °FOvercast.3 mph81%30.21 "Hg5 mi
5:20 am37 °FOvercast.3 mph81%30.21 "HgN/A
Weather by CustomWeather, © 2016

See weather overviewHow to use our weather pages